Theta_e
303 303 302 298 296 304 298 300 298 305 309 315 321 323 326 331 334 333 335 335 333 335 337 338 342 345 348 350 351 353 354 354
304 303 303 300 303 298 300 292 291 297 303 304 313 317 322 327 332 334 336 336 333 334 337 338 340 344 350 351 351 354 354 355
302 296 295 298 297 298 301 299 294 292 298 311 313 317 319 326 333 335 336 336 336 335 337 338 339 343 349 351 351 353 353 356
296 303 305 302 298 299 298 294 297 297 300 316 317 320 320 320 333 336 337 337 338 335 337 337 337 340 345 350 351 352 355 354
292 296 298 296 300 300 302 299 297 293 298 318 318 322 324 324 329 336 337 337 338 336 335 336 337 338 341 349 350 352 354 353
287 292 297 296 299 300 299 295 296 298 302 311 317 319 321 336 337 339 340 338 335 337 335 336 337 337 339 341 350 351 353 352
297 299 299 299 300 299 297 298 298 299 300 307 317 319 326 332 334 333 334 335 337 340 338 336 336 337 338 340 346 350 351 350
294 298 299 298 301 301 300 300 301 299 300 328 331 327 319 324 328 328 330 331 333 336 342 343 346 342 340 339 345 349 350 350
288 295 296 293 300 304 304 303 300 295 311 325 324 324 320 318 324 326 328 329 330 332 335 340 342 345 347 348 349 349 350 351
288 291 285 296 310 310 305 312 313 315 321 322 320 321 324 326 325 325 325 326 328 330 334 335 337 342 347 347 352 352 351 351
286 286 293 297 307 305 303 301 313 318 320 319 319 318 318 323 324 324 324 326 328 330 331 333 334 339 343 345 345 344 348 351
288 285 284 299 309 311 309 300 311 318 320 318 318 309 313 323 325 325 326 326 326 329 329 330 331 335 339 339 340 339 343 345
288 287 291 305 310 311 297 299 312 317 320 321 314 315 321 324 325 327 327 329 331 329 329 329 333 333 334 335 336 340 343 344
290 287 286 306 309 303 307 311 318 318 317 318 320 321 323 324 324 325 325 326 328 328 329 332 334 332 332 333 337 340 342 342
295 296 306 308 306 306 309 315 316 316 317 318 320 320 322 322 324 326 326 327 326 325 328 329 332 334 331 333 336 335 339 338
293 301 303 306 310 312 314 315 317 320 319 320 318 320 320 321 321 322 323 321 325 325 322 324 327 327 327 328 330 332 334 337
295 298 301 307 308 309 314 318 318 319 320 319 319 318 318 318 320 321 321 322 322 323 321 322 325 325 327 327 327 327 328 335
294 300 300 304 308 310 312 316 317 317 318 319 319 318 318 316 318 320 320 322 321 322 318 319 320 321 323 325 326 325 324 325
304 304 308 308 309 311 313 315 317 316 318 317 318 318 316 315 319 319 317 319 321 320 322 322 322 321 318 320 319 320 319 321
Wind_Speed
17 18 18 23 15 14 10 13 11 7 8 17 12 13 20 25 24 26 26 21 27 25 24 22 22 21 22 20 17 15 10 8
19 10 19 17 15 11 8 12 14 6 4 5 8 15 14 23 29 27 26 22 21 25 24 22 20 21 22 20 19 16 13 9
17 6 12 15 14 14 9 8 10 7 8 11 10 2 6 21 27 26 26 25 22 22 23 23 21 19 21 21 19 17 16 10
21 21 18 17 13 13 12 10 4 5 17 3 7 9 6 6 28 25 27 26 23 23 25 23 23 21 22 21 20 18 17 15
18 10 7 5 15 19 11 7 16 5 7 4 13 11 4 12 9 8 13 27 23 23 23 24 23 21 20 21 20 19 17 16
11 19 17 22 24 22 21 7 11 14 14 5 12 20 10 23 21 18 15 2 17 23 26 24 23 21 20 19 20 19 18 17
17 20 16 18 22 20 17 16 10 11 6 5 13 10 12 13 26 17 15 18 17 10 9 11 15 15 15 18 18 20 19 18
18 17 18 20 25 18 16 18 9 4 4 17 20 16 20 16 19 20 19 17 16 17 14 15 13 0 8 16 15 20 19 18
12 13 18 12 11 20 20 19 14 7 8 19 12 19 10 7 14 14 12 13 10 15 14 13 1 5 6 4 8 17 17 16
13 12 12 9 15 12 14 17 28 5 16 14 17 12 14 15 12 9 1 2 8 8 9 4 2 4 10 10 7 9 10 9
9 8 14 19 9 7 9 14 22 13 11 17 19 18 12 9 9 6 6 4 7 6 6 8 10 9 9 14 11 10 5 5
9 7 12 3 12 9 7 1 19 20 1 5 5 7 3 2 7 7 7 6 6 7 6 9 8 9 11 9 13 9 10 8
12 9 6 3 10 9 5 7 16 18 15 7 7 7 11 6 6 5 4 6 7 9 9 7 7 9 11 9 6 7 5 7
6 8 11 14 8 1 5 1 9 11 13 13 12 11 10 6 3 5 7 7 7 8 8 8 8 9 9 9 7 6 1 9
1 5 6 7 4 1 5 7 7 12 6 9 7 6 6 4 4 5 6 6 5 6 7 6 6 6 8 5 5 6 4 1
4 5 11 9 11 4 3 9 11 11 9 9 2 6 4 7 8 8 7 7 5 8 8 8 6 8 7 7 8 5 4 6
2 1 11 9 8 10 5 8 16 14 6 5 5 7 4 3 6 5 6 6 5 6 6 5 5 6 7 8 9 10 9 4
5 7 5 13 4 9 7 8 14 16 5 5 6 5 1 3 6 8 7 9 9 8 6 6 7 8 7 7 8 9 8 7
5 10 7 5 3 8 4 6 8 10 9 8 3 1 2 3 6 11 10 10 9 8 8 8 6 5 4 6 8 8 7 6
Wind_Direction
255 272 245 267 264 259 238 260 275 260 270 267 180 172 177 185 183 186 189 190 175 176 176 177 173 172 176 176 180 188 186 185
307 293 277 236 252 272 248 234 251 270 260 251 260 189 183 176 177 185 187 185 178 177 177 179 172 173 171 177 180 181 188 184
319 306 261 283 243 250 250 223 235 263 264 207 269 250 185 179 178 181 184 188 188 174 174 179 179 169 169 175 180 184 185 178
289 288 287 278 277 233 235 261 260 237 252 278 140 16 253 260 178 184 186 187 187 174 173 178 182 176 173 176 178 181 183 188
322 324 296 289 336 328 246 180 239 234 276 274 104 43 60 4 85 147 207 191 183 172 175 179 182 182 175 175 180 181 180 183
267 280 299 307 318 315 310 201 230 242 254 228 147 140 278 58 30 36 16 349 178 175 177 178 179 182 181 178 178 179 179 185
296 290 318 309 301 300 310 297 219 244 265 234 190 127 98 75 52 356 331 39 38 49 126 164 176 179 185 184 176 177 179 185
312 309 317 299 305 290 292 291 260 251 358 86 97 63 66 69 67 26 345 2 42 51 79 64 16 335 181 185 173 176 180 186
279 316 314 301 350 359 341 304 286 205 135 111 67 94 102 74 87 70 5 333 30 51 46 58 327 338 46 86 163 172 179 181
272 315 289 261 37 17 330 21 351 42 97 106 101 82 71 90 97 104 123 5 27 47 76 62 265 7 40 31 60 154 167 173
245 262 279 293 20 14 6 321 357 9 77 105 105 82 51 68 103 132 109 69 60 39 25 48 32 348 71 55 30 32 36 174
254 275 269 49 4 318 284 266 350 347 210 158 204 85 130 61 73 62 38 53 54 34 29 43 15 9 37 64 70 58 25 6
225 243 265 5 327 288 23 316 330 357 6 47 65 75 112 101 80 84 74 55 65 54 45 35 25 42 42 25 30 82 70 34
279 218 258 15 309 71 116 347 3 26 12 41 71 68 84 87 90 87 87 72 64 66 54 40 41 59 50 34 357 347 7 114
97 342 345 357 356 177 240 95 53 51 29 40 18 85 98 102 106 108 83 73 72 81 80 49 46 47 57 14 6 347 317 182
79 357 341 326 308 304 322 107 90 72 64 12 3 114 56 82 69 77 84 75 70 71 72 73 57 56 51 15 5 13 326 7
339 299 333 272 270 306 315 104 82 74 60 105 354 4 58 79 98 92 76 71 84 77 67 58 59 48 38 21 8 18 23 72
193 186 156 273 243 287 272 165 117 118 137 53 119 112 278 29 79 79 68 64 53 43 47 43 52 41 26 19 17 18 15 12
134 179 194 152 228 282 5 67 106 99 120 131 83 87 43 322 75 65 47 42 40 35 26 23 10 80 44 25 18 7 4 349